sat.trackr.live / text

‹ back to catalog

KUIPER-00062

NORAD 64522 · 2025-134Y

PAYLOAD ACTIVE UNKNOWN

§ Identity

Operator
Country
US
Launch date
2025-06-23
Launch site
AFETR
Launch vehicle
Mass (kg)
RCS (m²)

External: N2YO · Heavens-Above · Gunter

§ Orbital elements

Epoch: 2026-05-25T00:13:17.897952Z

Period
97.30 min
Inclination
51.8961°
Eccentricity
0.0000343
Mean motion
14.79933772 rev/d
Perigee alt
629.3 km
Apogee alt
629.8 km
Semi-major
7,007.7 km
B*
3.9510e-4
RAAN
253.1101°
Arg perigee
99.9585°
Mean anomaly
260.1416°
Rev number
5,141

§ Raw data

KUIPER-000621 64522U 25134Y   26145.00923493  .00002792  00000+0  39510-3 0  99922 64522  51.8961 253.1101 0000343  99.9585 260.1416 14.79933772 51412

JSON: /api/v1/satellites/64522 · /tle

For live sub-satellite position, see the globe view (requires WebGL).

§ Visibility from observer

Set your observer location to see the next 7 days of passes ≥ 10°. The values pass through the URL so the page stays shareable.

No JS? Fill the form by hand. The geolocation button needs JavaScript.